Weather in Valy

Russia / Samara Oblast     53°19′28″N   49°24′19″E
temp.,
°C
wind,
m/s
gust,
m/s
humid.,
%
clouds,
%
prec.,
mm/h
press.,
hPa
HPBL,
m
9 march, tue
tue901:00−9wsw5119221 0.0 1005222
04:00−12wnw349010 0.0 100859
07:00−15nw11951 0.0 100920
10:00−9wnw118713 0.0 1010110
13:00−6wnw11800 0.0 1010381
16:00−6nw228319 0.0 1009335
19:00−11n349024 0.0 100939
22:00−14n479525 0.0 1010125
10 march, wed
wed1001:00−15nnw479794 0.0 1010134
04:00−14nw599597 0.1 1011235
07:00−16nw5129483 0.1 1012285
10:00−15nw7129288 0.1 1013485
13:00−14nnw81190100 0.1 1014602
16:00−15nnw81290100 0.1 1016601
19:00−18nnw7139399 0.1 1017504
22:00−19nnw71394100 0.1 1019505
11 march, thu
thu1101:00−21nnw51296100 0.0 1021324
04:00−25nnw4109896 0.1 1023208
07:00−26nnw4710086 0.0 1024122
10:00−20nw479586 0.0 1025316
13:00−16wnw579098 0.0 1025535
16:00−14wnw578899 0.0 1025584
19:00−16nnw3696100 0.1 1025133
22:00−20nw239778 0.1 102722
12 march, fri
fri1201:00−20nw2210048 0.0 102820
04:00−19wnw1210065 0.0 102920
07:00−18nw2210075 0.0 103120
10:00−13nnw359352 0.0 1032237
13:00−9nw348421 0.0 1033336
16:00−8wnw348323 0.0 1032383
19:00−13w23900 0.0 103321
22:00−15w11914 0.0 103520
13 march, sat
sat1301:00−16sw129445 0.0 103520
04:00−18sw129523 0.0 103620
07:00−19ssw12980 0.0 103620
10:00−13ssw34890 0.0 1037151
13:00−10ssw45890 0.0 1036264
16:00−10s46880 0.0 1035299
19:00−15s33930 0.0 103433
22:00−18s33947 0.0 103433